Regional Weather Roundup
Issued by NWS Albany, NY

Home | Current Version | Previous Version | Graphics & Text | Print | Product List | Glossary On
Versions: 1 2 3 4 5 6 7 8 9 10 11 12 13 14 15 16 17 18 19 20 21 22 23 24 25 26 27 28 29 30 31 32 33 34 35 36 37 38 39 40 41 42 43 44 45 46 47 48 49 50
000
ASUS41 KALY 171910
RWRALY

NEW YORK STATE HOURLY WEATHER ROUNDUP
NATIONAL WEATHER SERVICE ALBANY NY
200 PM EST WED DEC 17 2014

NOTE: "FAIR" INDICATES FEW OR NO CLOUDS BELOW 12,000 FEET WITH NO
SIGNIFICANT WEATHER AND/OR NO OBSTRUCTIONS TO VISIBILITY.

NYZ032-033-038>043-046>054-057>066-NYZ062>081-172000-
EAST


CITY           SKY/WX    TMP DP  RH WIND       PRES   REMARKS
ALBANY         CLOUDY    40  38  93 CALM      29.79R FOG
GLENS FALLS    FOG       38  36  92 S3        29.75S VSB 1
POUGHKEEPSIE   CLOUDY    51  38  60 W9        29.77F
NEWBURGH       PTSUNNY   48  39  71 NW14G23   29.79S
MONTGOMERY     CLOUDY    49  37  63 NW16G24   29.79R
WHITE PLAINS   PTSUNNY   50  37  61 NW13      29.77F
ISLIP          CLOUDY    52  39  61 NW12      29.77R
NEW YORK CITY  CLOUDY    52  37  56 W13G22    29.80S
CENTRAL PARK   CLOUDY    52  37  56 W12G21    29.82S
$$

NYZ005>009-017-018-044>046-055-056-172000-
CENTRAL


CITY           SKY/WX    TMP DP  RH WIND       PRES   REMARKS
FULTON         LGT RAIN  37  33  85 W8        29.84R WCI  31
SYRACUSE       LGT RAIN  37  34  89 W16       29.84S WCI  28
ROME           LGT RAIN  38  36  92 W13       29.84R WCI  30
ELMIRA         CLOUDY    41  31  67 W16G24    29.85S
BINGHAMTON     FLURRIES  35  33  92 W10       29.81S WCI  27
MONTICELLO     CLOUDY    39  36  87 W14G22    29.80S WCI  31
$$

NYZ026>034-041>043-172000-
NORTH


CITY           SKY/WX    TMP DP  RH WIND       PRES   REMARKS
WATERTOWN      LGT RAIN  39  34  82 SW15G24   29.79R WCI  31
FORT DRUM      NOT AVBL
MASSENA        LGT RAIN  39  36  89 SW12      29.75R WCI  32
SARANAC LAKE   CLOUDY    36  33  89 SW9       29.70R WCI  29
PLATTSBURGH    CLOUDY    38  37  97 S3        29.73F
$$

NYZ001>004-010>016-019>021-172000-
WEST


CITY           SKY/WX    TMP DP  RH WIND       PRES   REMARKS
NIAGARA FALLS  LGT SNOW  34  31  88 W21G30    29.89S FOG     WCI  22
BUFFALO        FLURRIES  35  29  78 W23G32    29.89S WCI  23
DUNKIRK        MIX PCPN  34  29  82 W23G32    29.96R WCI  22
JAMESTOWN      CLOUDY    30  27  86 W23       29.93R WCI  17
WELLSVILLE     FLURRIES  33  27  78 W17G28    29.87R WCI  22
ROCHESTER      CLOUDY    37  30  75 W24G35    29.86R WCI  26
PENN YAN       CLOUDY    39  30  70 SW18      29.85R WCI  30
$$

             KEY
       WCI = WIND CHILL INDEX
       VSB = VISIBILITY
       HX  = HEAT INDEX
$$



USA.gov is the U.S. government's official web portal to all federal, state and local government web resources and services.